Location: Newark
(48.6461°N, 4.3644°W)
Time: 16:41:53
(UTC+00:00)

Altair - Visible Passes

Search period start: 19 January 2020 00:00
Search period end: 29 January 2020 00:00
Orbit: 1502 x 1682 km, 47.2° (Epoch: 19 January)

Date Brightness Start Highest point End Pass type
(mag) Time Alt. Az. Time Alt. Az. Time Alt. Az.
19 Jan 10.0 18:39:18 10° W 18:44:03 15° WSW 18:48:44 10° SSW visible
20 Jan 10.0 18:13:34 10° W 18:19:03 16° SW 18:24:27 10° SSW visible
21 Jan 10.0 17:47:58 10° W 17:54:03 18° SW 18:00:02 10° SSW visible
22 Jan 10.6 07:06:41 10° SE 07:10:07 12° ESE 07:13:33 10° E visible
22 Jan 10.1 17:22:26 10° W 17:29:03 20° SW 17:35:33 10° S visible
23 Jan 10.6 06:43:25 10° SE 06:45:08 11° ESE 06:46:51 10° ESE visible
27 Jan 9.7 06:59:14 10° S 07:07:17 29° SE 07:15:27 10° E visible
28 Jan 9.7 06:34:28 10° S 06:42:14 27° SE 06:50:06 10° E visible
